User: anonymous   Login
Location: Obersdorf
(47.4079°N, 10.2781°E)
Time: 11:54:28
(UTC+01:00)
Language:

DUCHIFAT 1 - Orbit

View from above orbital plane
View from above orbital plane
View from above satellite
View from above satellite

Ground track
Ground track

The orbit data is extracted from the following two-line orbital elements,

1 40021U 14033M   21335.11628183  .00001275  00000-0  13259-3 0  9990
2 40021  97.9899 277.2311 0012361 341.7325  18.3447 14.91665626405126
Epoch (UTC): 01 December 2021 02:47:26
Eccentricity: 0.0012361
inclination: 97.9899°
perigee height: 584 km
apogee height: 601 km
right ascension of ascending node: 277.2311°
argument of perigee: 341.7325°
revolutions per day: 14.91665626
mean anomaly at epoch: 18.3447°
orbit number at epoch: 40512

The dashed part of the orbit path shows where the satellite is in the earth's shadow,  

DLR